Weather History for Sisseton, SD

Change the Weather History Date:

Thursday, September 18, 2014

  Actual Average Record
Temperature  
Mean Temperature 60 °F 59 °F  
Max Temperature 78 °F 72 °F 94 °F (1998)
Min Temperature 41 °F 46 °F 31 °F (2012)
Degree Days  
Heating Degree Days 5 7  
Month to date heating degree days 124 87  
Since 1 July heating degree days 161 130  
Cooling Degree Days 0 1  
Month to date cooling degree days 23 37  
Year to date cooling degree days 423 516  
Growing Degree Days 10 (Base 50)    
Moisture  
Dew Point 52 °F    
Average Humidity 77    
Maximum Humidity 100    
Minimum Humidity 54    
Precipitation  
Precipitation 0.00 in 0.09 in 1.09 in (2003)
Month to date precipitation 0.07 1.46  
Year to date precipitation 21.03 18.20  
Sea Level Pressure  
Sea Level Pressure 29.92 in    
Wind  
Wind Speed 9 mph (South)    
Max Wind Speed 18 mph    
Max Gust Speed 26 mph    
T = Trace of Precipitation, MM = Missing Value Source: NWS Daily Summary

Daily Weather History Graph

Daily Weather History Graph

Search for Another Location

Airport:

Trip Planner

Search our weather history database for the weather conditions in past years. The results will help you decide how hot, cold, wet, or windy it might be!

Date:

Astronomy

Sep. 18, 2014 Rise Set
Actual Time 7:10 AM CDT 7:33 PM CDT
Civil Twilight 6:40 AM CDT 8:02 PM CDT
Nautical Twilight 6:05 AM CDT 8:37 PM CDT
Astronomical Twilight 5:28 AM CDT 9:14 PM CDT
Moon 1:51 AM CDT 4:36 PM CDT
Length of Visible Light 13h 22m
Length of Day
12h 23m
Waning Crescent, 26% of the Moon is Illuminated
Sep 18
Waning Crescent
Sep 24
New
Oct 1
First Quarter
Oct 8
Full
Oct 15
Last Quarter

Hourly Weather History & Observations

Time (CDT) Temp. Windchill Dew Point Humidity Pressure Visibility Wind Dir Wind Speed Gust Speed Precip Events Conditions
12:56 AM 45.0 °F - 44.1 °F 97% 29.98 in - Calm Calm - N/A   Unknown
1:56 AM 45.0 °F 43.5 °F 44.1 °F 97% 29.98 in - NW 3.5 mph - N/A   Unknown
2:56 AM 44.1 °F 42.5 °F 42.1 °F 93% 29.98 in - North 3.5 mph - N/A   Unknown
3:56 AM 44.1 °F - 43.0 °F 96% 29.98 in - Calm Calm - N/A   Unknown
4:56 AM 42.1 °F - 42.1 °F 100% 29.98 in - Calm Calm - N/A   Unknown
5:56 AM 42.1 °F - 42.1 °F 100% 29.98 in - Calm Calm - N/A   Unknown
6:56 AM 45.0 °F 42.6 °F 45.0 °F 100% 29.99 in - South 4.6 mph - N/A   Unknown
7:56 AM 50.0 °F - 50.0 °F 100% 30.00 in - South 6.9 mph - N/A   Unknown
8:56 AM 51.1 °F - 51.1 °F 100% 30.01 in - South 13.8 mph - N/A   Unknown
9:56 AM 52.0 °F - 52.0 °F 100% 30.01 in - South 10.4 mph - N/A   Unknown
10:56 AM 53.1 °F - 53.1 °F 100% 30.00 in - South 10.4 mph - N/A   Unknown
11:56 AM 55.0 °F - 54.0 °F 96% 29.99 in - South 11.5 mph - N/A   Unknown
12:56 PM 59.0 °F - 55.0 °F 87% 29.96 in - South 12.7 mph - N/A   Unknown
1:56 PM 66.9 °F - 57.9 °F 73% 29.92 in - SSE 11.5 mph 16.1 mph N/A   Unknown
2:56 PM 73.9 °F - 60.1 °F 62% 29.88 in - South 11.5 mph 23.0 mph N/A   Unknown
3:56 PM 75.9 °F - 61.0 °F 60% 29.85 in - South 11.5 mph 21.9 mph N/A   Unknown
4:56 PM 77.0 °F - 59.0 °F 54% 29.83 in - South 16.1 mph 24.2 mph N/A   Unknown
5:56 PM 75.9 °F - 59.0 °F 56% 29.82 in - South 13.8 mph - N/A   Unknown
6:56 PM 72.0 °F - 57.9 °F 61% 29.82 in - South 11.5 mph - N/A   Unknown
7:56 PM 69.1 °F - 57.9 °F 68% 29.80 in - South 10.4 mph - N/A   Unknown
8:56 PM 64.0 °F - 57.9 °F 80% 29.81 in - South 10.4 mph - N/A   Unknown
9:56 PM 62.1 °F - 57.0 °F 84% 29.81 in - South 9.2 mph - N/A   Unknown
10:56 PM 62.1 °F - 55.9 °F 80% 29.80 in - South 9.2 mph - N/A   Unknown
11:56 PM 62.1 °F - 55.9 °F 80% 29.78 in - South 10.4 mph - N/A   Unknown